Wind_Speed
28 28 27 27 27 26 25 24 23 23 22 21 19 19 19 19 18 17 17 17 18 18 18 17 17 17 17 17 17 17 17 17 17 17 17 17 17 17 17 16 15 15 15
29 28 28 29 28 27 26 25 24 23 23 22 21 20 20 20 19 19 18 19 19 18 18 19 19 19 18 18 18 19 19 19 19 19 19 19 19 19 19 18 18 18 17
27 28 28 27 27 28 27 26 25 25 23 22 21 21 21 21 21 20 20 20 20 20 20 20 20 20 19 20 20 20 21 21 21 21 20 20 20 21 21 20 20 20 20
27 27 28 26 25 25 26 26 25 25 24 22 22 22 22 22 21 22 22 21 21 21 21 21 20 20 20 21 21 21 22 22 22 23 22 22 22 22 22 22 22 22 22
27 26 25 25 24 23 24 24 25 25 24 23 23 23 22 22 22 23 23 22 22 22 22 22 21 22 22 22 23 23 23 23 22 23 23 23 23 23 23 23 24 24 24
25 25 25 24 24 24 24 23 23 23 24 23 23 23 23 23 23 24 24 24 24 24 24 23 23 23 23 23 24 24 24 24 23 23 24 24 24 24 24 25 25 25 26
24 24 24 24 24 24 23 23 22 23 23 23 24 24 24 24 24 24 25 25 25 25 26 25 24 24 25 25 25 25 25 25 25 24 24 24 25 25 26 27 27 27 27
23 23 23 23 23 23 23 23 23 23 22 23 24 24 24 24 24 24 25 26 26 26 26 26 26 25 25 26 26 26 26 26 26 26 25 25 25 26 28 27 28 28 28
22 22 23 23 23 23 23 22 23 23 23 23 24 25 25 24 24 24 25 26 26 27 27 27 27 26 26 27 27 27 27 27 27 27 27 27 27 26 27 28 29 29 29
22 23 22 22 23 23 23 23 24 24 24 23 24 25 25 25 25 25 26 26 27 27 27 27 27 27 27 27 28 28 28 29 28 28 28 29 28 28 28 29 30 30 30
21 21 22 22 23 23 23 24 24 24 25 24 24 24 25 25 25 25 25 26 27 27 27 28 28 28 28 28 29 28 28 28 29 29 29 29 30 30 30 30 31 31 31
21 22 22 23 23 23 24 25 25 25 25 25 25 25 25 25 25 25 25 26 27 27 28 28 28 29 28 28 29 29 29 28 28 29 29 30 30 30 30 30 31 32 32
22 22 23 23 24 24 25 25 26 26 26 26 26 26 26 26 26 26 26 26 27 27 27 28 28 29 29 29 29 28 28 28 29 29 30 29 30 30 30 30 31 32 32
23 24 24 24 25 25 25 25 25 26 26 26 26 26 27 27 27 27 27 27 27 27 27 28 28 29 29 29 30 29 29 29 29 29 29 29 28 29 30 30 30 31 32
25 25 26 26 26 27 27 27 26 27 27 27 27 27 27 28 28 28 28 28 27 27 27 27 28 29 30 30 31 30 30 29 29 29 28 28 28 28 28 28 29 29 29
27 27 28 28 27 27 28 28 28 29 28 28 28 28 28 28 29 29 29 29 29 28 28 28 28 29 29 30 30 30 30 30 29 28 27 27 26 26 26 28 29 28 27
28 28 28 28 29 29 29 29 30 30 30 30 30 30 29 29 29 29 29 29 29 28 28 27 27 27 28 28 29 29 28 28 27 26 25 24 24 24 25 26 26 26 25
28 28 28 28 28 29 29 30 30 30 30 30 31 30 29 30 30 30 30 30 29 29 29 28 27 26 26 27 28 27 26 26 25 24 23 22 22 22 23 23 24 23 23
28 28 28 28 28 28 29 30 30 31 31 30 30 30 30 29 29 29 29 30 30 29 29 28 28 27 26 25 25 24 25 24 24 23 22 22 22 21 21 21 20 20 19
28 29 29 28 28 29 29 29 29 29 29 30 30 29 30 30 29 29 28 29 29 28 27 27 26 26 25 23 22 22 22 22 22 21 21 21 20 19 18 17 17 16 16
28 28 27 27 28 28 28 28 27 28 27 27 28 28 28 28 28 28 28 27 27 26 26 25 24 23 21 20 20 20 20 20 19 19 18 18 17 16 14 14 15 15 14
26 26 27 27 26 26 26 26 26 26 26 26 26 26 27 27 27 26 26 25 25 24 24 23 22 21 19 19 19 18 17 16 15 15 15 15 15 14 14 14 13 12 12
25 25 25 24 24 24 25 25 25 24 24 24 24 24 24 24 25 24 24 23 22 21 21 20 20 19 18 18 17 16 14 14 12 12 12 11 12 12 12 11 11 10 10
22 22 22 22 22 22 21 22 21 21 21 22 22 22 22 21 21 21 20 20 19 18 17 17 17 17 16 15 14 13 12 11 10 10 11 11 10 10 10 9 9 8 9
21 20 19 19 20 20 20 19 19 19 19 19 19 18 18 18 18 17 17 17 16 16 16 16 15 14 13 13 12 11 11 10 10 10 9 9 9 9 9 8 7 8 8
18 18 18 18 19 18 18 18 17 17 16 15 15 15 14 14 14 14 13 14 14 14 14 14 13 13 12 11 11 11 11 10 10 9 8 8 8 8 7 6 6 7 8
Wind_Direction
256 254 252 252 253 256 257 257 257 258 261 262 265 267 269 271 273 272 271 273 275 275 272 273 274 270 267 264 264 265 263 263 263 261 259 258 257 257 258 256 256 259 261
258 258 257 256 257 256 257 260 261 262 262 262 263 266 268 269 272 273 273 273 275 276 275 273 273 271 267 266 267 268 268 265 264 263 262 259 257 258 258 258 258 258 260
260 260 259 259 258 257 257 259 262 263 262 262 263 264 268 270 270 273 273 273 273 274 274 275 275 272 267 266 269 269 269 266 264 265 263 261 260 259 258 259 259 259 260
263 260 258 259 261 260 259 261 263 264 262 262 263 265 267 270 271 272 273 273 272 273 273 275 274 272 268 268 269 271 270 269 267 264 264 263 264 260 259 260 261 261 262
265 261 259 260 262 263 264 267 266 265 265 265 265 265 267 269 270 271 272 273 272 272 273 274 274 272 270 270 270 271 272 270 269 267 266 266 265 263 262 263 265 264 264
266 262 262 263 265 267 267 268 270 268 267 266 266 266 267 267 267 270 271 272 273 273 273 275 273 273 272 272 271 272 271 270 270 271 268 266 266 265 267 266 266 266 266
267 265 263 264 266 268 268 269 270 269 269 268 268 269 269 269 268 269 270 271 272 273 273 273 274 272 271 273 273 273 272 271 270 271 270 268 267 268 268 268 266 267 268
266 265 265 267 268 270 271 270 270 271 270 270 270 270 271 272 271 270 270 272 273 273 273 275 275 273 271 271 272 273 274 273 270 270 270 270 269 269 268 268 268 268 268
265 266 268 269 270 271 272 273 272 273 273 271 271 272 273 273 273 273 272 272 273 274 275 274 276 276 274 273 273 273 273 273 273 271 270 270 271 272 269 269 269 269 270
268 270 271 269 269 269 270 271 272 272 274 275 274 275 276 276 273 272 273 274 275 276 277 276 276 275 275 275 274 274 275 274 274 274 273 272 271 271 270 271 271 270 271
272 273 272 273 272 272 272 272 273 273 274 276 276 276 277 277 276 275 274 275 276 278 278 277 278 277 276 274 273 274 275 275 275 275 274 271 270 271 271 271 271 271 273
276 275 274 274 273 274 274 273 273 273 275 276 276 277 276 276 277 277 276 276 276 278 279 278 278 278 277 276 276 274 274 275 276 277 275 272 271 272 272 271 271 273 275
276 276 275 275 275 274 275 274 274 274 274 275 275 275 275 275 275 276 277 277 277 277 278 277 277 277 277 277 277 277 276 275 276 278 279 278 275 274 274 272 271 275 277
275 275 276 276 276 275 275 275 275 274 274 274 274 274 274 274 275 276 278 278 277 277 279 278 276 275 276 277 278 277 277 278 278 278 279 281 279 277 275 275 273 275 277
275 275 275 275 275 274 274 274 274 274 274 274 273 273 273 274 275 275 277 278 278 278 278 278 275 274 276 277 277 277 277 278 277 279 280 282 283 279 277 279 279 279 280
276 276 276 275 274 274 274 274 274 274 273 273 273 272 272 272 273 275 275 276 277 277 278 279 278 278 276 276 275 275 276 276 277 278 279 282 283 282 278 279 281 282 282
278 279 277 276 275 274 274 274 273 273 272 272 272 272 272 272 272 274 274 274 275 277 278 278 279 279 277 276 275 274 274 275 276 277 279 280 280 280 277 278 279 281 285
280 280 279 277 277 277 276 275 275 274 273 273 272 271 271 272 271 273 272 271 273 275 276 276 277 278 277 275 274 273 274 274 276 278 278 278 279 281 282 283 283 282 286
281 283 281 280 280 279 279 277 276 275 273 274 273 272 271 271 270 271 271 270 271 272 273 273 273 274 274 276 273 271 272 273 275 277 278 278 279 281 283 284 287 289 290
282 282 282 282 282 281 280 278 277 276 274 273 272 272 270 270 269 269 270 270 269 270 271 271 271 272 272 273 270 270 270 272 273 274 276 277 279 282 286 287 288 289 292
283 282 283 283 281 281 280 279 278 277 276 275 273 271 270 269 269 268 269 269 268 268 269 269 270 270 270 269 267 270 271 270 269 271 274 275 279 283 287 289 290 291 295
284 282 281 282 282 280 279 278 279 277 275 274 273 271 270 269 267 266 266 266 266 265 264 264 264 265 265 264 264 266 267 268 268 269 273 275 279 284 287 288 289 291 292
284 282 282 283 282 281 279 278 277 278 276 274 272 271 270 268 266 265 263 263 262 260 259 258 259 260 261 261 261 261 260 263 265 268 274 277 281 285 288 287 285 285 288
286 285 285 283 283 283 282 280 277 276 276 275 273 270 268 266 266 264 260 259 258 254 251 254 255 255 255 256 256 255 253 258 263 270 275 278 280 282 284 284 282 285 290
287 287 287 286 286 285 282 280 279 279 278 276 272 270 268 264 262 257 253 251 250 248 247 247 245 244 246 247 250 249 250 255 262 266 268 272 277 277 278 279 284 290 294
289 287 286 287 288 286 285 282 277 276 275 274 272 267 265 261 254 249 244 240 238 237 238 237 234 235 237 238 240 244 250 253 254 259 264 267 269 273 276 280 288 292 294
Height
5872 5872 5874 5875 5876 5877 5878 5879 5879 5881 5881 5881 5883 5884 5885 5886 5886 5886 5887 5887 5887 5887 5888 5888 5888 5888 5888 5888 5889 5889 5889 5889 5890 5890 5890 5891 5891 5892 5892 5893 5893 5893 5894
5867 5868 5869 5870 5871 5872 5874 5875 5875 5877 5878 5878 5879 5880 5881 5882 5882 5882 5883 5884 5884 5884 5884 5884 5884 5885 5885 5885 5885 5886 5886 5886 5886 5886 5887 5887 5888 5888 5889 5889 5889 5890 5890
5861 5863 5864 5865 5866 5867 5869 5870 5871 5873 5873 5874 5874 5875 5877 5877 5878 5878 5879 5879 5880 5880 5880 5880 5880 5880 5880 5881 5881 5881 5881 5882 5882 5882 5882 5883 5883 5884 5885 5885 5885 5886 5886
5856 5857 5858 5860 5861 5862 5864 5865 5867 5868 5869 5870 5871 5872 5873 5873 5874 5874 5874 5875 5875 5875 5875 5875 5875 5876 5876 5876 5877 5877 5877 5877 5877 5878 5878 5878 5879 5879 5880 5881 5881 5881 5881
5852 5852 5853 5854 5855 5857 5858 5860 5861 5863 5864 5865 5866 5867 5868 5868 5868 5869 5870 5870 5870 5870 5871 5870 5870 5871 5871 5872 5872 5872 5872 5872 5872 5873 5873 5873 5874 5874 5875 5876 5876 5876 5876
5847 5847 5848 5850 5850 5851 5853 5854 5856 5857 5858 5859 5860 5861 5862 5863 5863 5864 5864 5864 5865 5865 5865 5865 5865 5866 5866 5866 5867 5867 5867 5867 5867 5867 5868 5868 5869 5869 5870 5870 5871 5871 5871
5841 5842 5843 5844 5845 5846 5847 5848 5850 5851 5852 5853 5854 5855 5856 5857 5858 5858 5859 5859 5859 5859 5860 5860 5860 5861 5861 5861 5861 5861 5861 5861 5861 5862 5862 5862 5863 5863 5864 5865 5865 5865 5865
5836 5837 5838 5839 5840 5842 5842 5843 5844 5845 5846 5847 5848 5849 5850 5852 5851 5852 5852 5853 5853 5854 5854 5854 5854 5854 5854 5855 5856 5856 5856 5856 5856 5856 5856 5857 5857 5857 5858 5858 5858 5858 5859
5831 5832 5833 5834 5835 5836 5837 5838 5839 5840 5840 5842 5842 5843 5844 5845 5845 5846 5846 5847 5847 5848 5848 5848 5848 5848 5849 5849 5849 5849 5850 5850 5850 5850 5850 5850 5850 5850 5851 5851 5851 5852 5852
5826 5826 5827 5828 5829 5831 5832 5833 5833 5834 5835 5835 5836 5837 5838 5838 5839 5840 5841 5841 5841 5841 5841 5842 5842 5842 5843 5843 5843 5843 5843 5844 5844 5844 5844 5843 5843 5844 5844 5844 5844 5845 5845
5820 5821 5821 5822 5824 5825 5826 5827 5827 5828 5828 5829 5830 5830 5831 5831 5832 5833 5834 5835 5835 5835 5835 5835 5835 5836 5836 5837 5836 5836 5837 5837 5837 5837 5837 5837 5836 5837 5837 5837 5837 5837 5837
5815 5816 5816 5817 5818 5818 5819 5820 5820 5821 5822 5823 5824 5824 5825 5825 5826 5826 5827 5828 5828 5828 5828 5828 5829 5829 5829 5830 5830 5830 5829 5830 5830 5830 5830 5830 5830 5830 5830 5830 5830 5830 5829
5810 5810 5811 5811 5812 5812 5813 5813 5814 5814 5815 5816 5817 5818 5818 5819 5819 5820 5821 5821 5821 5821 5821 5821 5821 5822 5822 5822 5823 5823 5822 5822 5823 5823 5823 5823 5822 5822 5823 5822 5823 5822 5822
5804 5805 5804 5805 5805 5805 5806 5806 5807 5808 5808 5809 5809 5810 5811 5812 5812 5813 5814 5814 5814 5814 5814 5815 5814 5815 5815 5815 5816 5816 5816 5816 5816 5816 5816 5816 5815 5815 5815 5815 5815 5815 5814
5798 5798 5798 5798 5798 5798 5799 5799 5800 5800 5801 5801 5802 5803 5804 5805 5805 5805 5806 5806 5807 5807 5808 5808 5807 5807 5807 5808 5808 5808 5809 5809 5809 5809 5808 5809 5808 5808 5808 5808 5808 5808 5806
5791 5791 5790 5790 5790 5791 5791 5791 5792 5792 5793 5794 5794 5795 5796 5797 5797 5798 5798 5799 5799 5800 5800 5800 5800 5800 5800 5800 5800 5801 5801 5801 5802 5802 5802 5802 5801 5801 5802 5802 5802 5801 5800
5784 5783 5783 5783 5783 5783 5783 5783 5783 5784 5785 5785 5786 5787 5788 5789 5789 5790 5791 5791 5791 5792 5792 5793 5792 5792 5792 5792 5792 5793 5793 5794 5795 5795 5795 5795 5795 5795 5795 5795 5794 5794 5793
5776 5776 5775 5775 5775 5774 5774 5774 5775 5775 5776 5777 5777 5778 5779 5780 5781 5782 5782 5783 5783 5784 5785 5785 5785 5785 5785 5785 5786 5786 5787 5788 5789 5789 5789 5789 5789 5789 5789 5788 5788 5787 5786
5769 5768 5767 5767 5766 5766 5766 5766 5766 5766 5767 5768 5768 5769 5770 5771 5772 5773 5774 5774 5775 5776 5776 5777 5778 5778 5778 5779 5779 5780 5781 5781 5782 5782 5783 5783 5783 5783 5783 5782 5781 5781 5780
5761 5760 5760 5759 5759 5758 5757 5757 5757 5757 5758 5758 5759 5760 5761 5762 5763 5764 5765 5766 5767 5768 5769 5769 5770 5771 5771 5772 5772 5773 5775 5775 5776 5777 5777 5777 5777 5777 5777 5776 5776 5775 5774
5754 5753 5752 5751 5751 5750 5750 5749 5749 5749 5749 5750 5750 5751 5752 5753 5754 5756 5757 5758 5759 5760 5761 5762 5763 5764 5765 5766 5767 5768 5769 5769 5770 5771 5771 5772 5772 5772 5771 5771 5771 5770 5770
5746 5745 5745 5744 5743 5742 5742 5741 5741 5741 5741 5742 5742 5743 5744 5745 5746 5748 5749 5750 5751 5753 5754 5755 5757 5758 5759 5760 5761 5762 5763 5764 5765 5766 5766 5767 5767 5767 5767 5767 5766 5766 5765
5739 5738 5737 5737 5736 5735 5735 5734 5734 5734 5734 5734 5735 5735 5736 5737 5738 5740 5741 5743 5744 5746 5748 5750 5751 5753 5754 5755 5756 5757 5758 5760 5761 5761 5762 5763 5763 5763 5763 5762 5762 5762 5762
5732 5731 5730 5730 5729 5729 5728 5728 5728 5727 5727 5727 5728 5728 5729 5730 5732 5733 5735 5736 5738 5740 5742 5744 5746 5748 5749 5750 5752 5753 5754 5756 5757 5758 5758 5759 5759 5759 5759 5759 5759 5758 5758
5726 5725 5724 5724 5724 5723 5723 5722 5722 5721 5721 5721 5721 5722 5723 5724 5726 5727 5729 5731 5733 5735 5738 5740 5741 5743 5745 5746 5748 5750 5751 5752 5753 5754 5755 5755 5756 5756 5756 5756 5756 5755 5755
5720 5720 5719 5719 5718 5718 5717 5717 5716 5716 5716 5717 5717 5717 5718 5720 5721 5723 5725 5727 5729 5732 5734 5736 5738 5740 5741 5743 5745 5746 5748 5749 5750 5751 5752 5752 5752 5753 5753 5753 5753 5752 5752